FW5619 Weather Reports


Display with metric or nautical units.
time (UTC)temp
F
wind
direction
speed
MPH
gust
MPH
rain 1hr
in
rain 24hr
in
rain mn
in
humidity
%
barometer
mb
20260509201050 55 155 17.0 22.0 0.07 0.27 0.27 92 1012.7
20260509200549 55 211 16.0 22.0 0.07 0.27 0.27 92 1012.9
20260509200053 55 196 8.0 22.0 0.07 0.27 0.27 92 1012.8
20260509195550 55 214 11.0 22.0 0.08 0.27 0.27 92 1012.8
20260509195046 55 259 8.0 23.0 0.09 0.27 0.27 92 1012.9
20260509194546 55 192 12.0 21.0 0.11 0.27 0.27 93 1012.9
20260509194045 55 193 9.0 19.0 0.12 0.27 0.27 93 1013.1
20260509193544 56 236 8.0 28.0 0.12 0.24 0.24 92 1013.2
20260509193045 56 254 11.0 28.0 0.13 0.23 0.23 93 1013.2
20260509192546 56 194 14.0 27.0 0.13 0.21 0.21 93 1013.2
20260509192045 56 199 14.0 23.0 0.16 0.21 0.21 93 1013.2
20260509191543 55 256 7.0 16.0 0.16 0.20 0.20 93 1013.4
20260509191044 55 220 9.0 15.0 0.16 0.20 0.20 92 1013.2
20260509190547 55 235 9.0 17.0 0.16 0.20 0.20 92 1013.4
20260509190048 55 227 8.0 16.0 0.17 0.20 0.20 92 1013.4
20260509185542 55 242 8.0 14.0 0.16 0.19 0.19 92 1013.4
20260509185041 55 242 9.0 14.0 0.14 0.17 0.17 92 1013.6
20260509184541 55 244 9.0 20.0 0.15 0.16 0.16 91 1013.6
20260509184041 56 225 12.0 21.0 0.14 0.15 0.15 92 1013.5
20260509183540 56 225 8.0 23.0 0.10 0.11 0.11 91 1013.4
20260509183040 56 204 13.0 21.0 0.09 0.09 0.09 91 1013.2
20260509182539 56 199 13.0 20.0 0.07 0.07 0.07 91 1013.3
20260509182039 56 217 10.0 20.0 0.05 0.05 0.05 91 1013.2
20260509181538 56 246 10.0 19.0 0.04 0.04 0.04 91 1013.4
20260509181038 56 195 12.0 19.0 0.04 0.04 0.04 91 1013.1
20260509180538 55 271 10.0 16.0 0.04 0.04 0.04 91 1013.2
20260509180037 55 235 7.0 20.0 0.03 0.03 0.03 91 1013.3
20260509175537 55 202 9.0 20.0 0.03 0.03 0.03 90 1013.3
20260509175036 56 211 6.0 14.0 0.03 0.03 0.03 90 1013.4
20260509174538 56 215 4.0 17.0 0.01 0.01 0.01 89 1013.3
20260509174036 56 213 8.0 20.0 0.01 0.01 0.01 87 1013.2
20260509173539 57 233 13.0 20.0 0.00 0.00 0.00 86 1013.4
20260509173100 57 261 11.0 20.0 0.00 0.00 0.00 86 1013.3
20260509172535 57 187 10.0 18.0 0.00 0.00 0.00 85 1013.0
20260509172035 58 260 10.0 18.0 0.00 0.00 0.00 85 1013.4
20260509171540 57 254 8.0 15.0 0.00 0.00 0.00 86 1013.0
20260509171034 57 246 9.0 14.0 0.00 0.00 0.00 86 1013.1
20260509170536 57 261 8.0 14.0 0.00 0.00 0.00 85 1013.1
20260509170033 57 272 7.0 17.0 0.00 0.00 0.00 85 1013.2
20260509165532 57 247 10.0 17.0 0.00 0.00 0.00 85 1013.1
20260509165032 57 238 11.0 17.0 0.00 0.00 0.00 85 1013.1
20260509164532 58 234 9.0 18.0 0.00 0.00 0.00 84 1013.2
20260509164032 58 205 9.0 18.0 0.00 0.00 0.00 83 1013.3
20260509163531 58 241 6.0 11.0 0.00 0.00 0.00 83 1013.5
20260509163030 59 243 4.0 9.0 0.00 0.00 0.00 83 1013.6
20260509162532 58 243 4.0 11.0 0.00 0.00 0.00 85 1013.7
20260509162028 57 242 5.0 13.0 0.00 0.00 0.00 85 1013.7
20260509161527 57 242 6.0 13.0 0.00 0.00 0.00 86 1013.9
20260509161025 57 238 8.0 14.0 0.00 0.00 0.00 86 1014.1
20260509160525 57 238 7.0 14.0 0.00 0.00 0.00 86 1014.1
20260509160025 57 236 8.0 14.0 0.00 0.00 0.00 86 1014.2
20260509155524 57 233 6.0 14.0 0.00 0.00 0.00 86 1014.1
20260509155024 57 232 7.0 14.0 0.00 0.00 0.00 86 1014.3
20260509154524 57 228 5.0 15.0 0.00 0.00 0.00 86 1014.4
20260509154024 57 226 6.0 15.0 0.00 0.00 0.00 85 1014.4
20260509153523 57 221 6.0 11.0 0.00 0.00 0.00 86 1014.1
20260509153031 57 218 7.0 15.0 0.00 0.00 0.00 85 1014.3
20260509152523 57 211 7.0 15.0 0.00 0.00 0.00 85 1014.3
20260509152023 57 205 7.0 13.0 0.00 0.00 0.00 86 1014.3
20260509151523 57 205 7.0 13.0 0.00 0.00 0.00 85 1014.3
20260509151027 57 204 6.0 11.0 0.00 0.00 0.00 85 1014.3
20260509150521 57 203 6.0 11.0 0.00 0.00 0.00 86 1014.3
20260509150020 57 202 5.0 12.0 0.00 0.00 0.00 87 1014.5
20260509145519 56 202 6.0 14.0 0.00 0.00 0.00 87 1014.5
20260509145019 56 202 10.0 14.0 0.00 0.00 0.00 86 1014.5
20260509144519 56 202 8.0 17.0 0.00 0.00 0.00 87 1014.5
20260509144018 56 202 6.0 17.0 0.00 0.00 0.00 87 1014.5
20260509143527 56 202 11.0 16.0 0.00 0.00 0.00 87 1014.5
20260509143019 56 215 7.0 14.0 0.00 0.00 0.00 87 1014.4
20260509142517 56 218 7.0 11.0 0.00 0.00 0.00 87 1014.5
20260509142017 56 218 2.0 7.0 0.00 0.00 0.00 87 1014.4
20260509141516 56 219 4.0 7.0 0.00 0.00 0.00 87 1014.4
20260509141018 55 219 1.0 4.0 0.00 0.00 0.00 87 1014.4
20260509140615 55 219 1.0 4.0 0.00 0.00 0.00 87 1014.5
20260509140015 55 219 1.0 5.0 0.00 0.00 0.00 87 1014.4
20260509135516 55 219 2.0 6.0 0.00 0.00 0.00 87 1014.5
20260509135015 55 219 3.0 5.0 0.00 0.00 0.00 86 1014.4
20260509134513 55 219 1.0 5.0 0.00 0.00 0.00 87 1014.5
20260509134013 55 219 2.0 5.0 0.00 0.00 0.00 87 1014.5
20260509133514 55 219 2.0 5.0 0.00 0.00 0.00 86 1014.6
20260509133013 55 219 2.0 3.0 0.00 0.00 0.00 86 1014.6
20260509132513 55 219 1.0 6.0 0.00 0.00 0.00 87 1014.6
20260509132013 55 219 3.0 6.0 0.00 0.00 0.00 87 1014.6
20260509131511 55 219 0.0 6.0 0.00 0.00 0.00 87 1014.6
20260509131010 55 219 2.0 6.0 0.00 0.00 0.00 87 1014.6
20260509130514 54 219 1.0 7.0 0.00 0.00 0.00 88 1014.5
20260509130030 54 219 4.0 9.0 0.00 0.00 0.00 88 1014.6
20260509125510 54 219 4.0 9.0 0.00 0.00 0.00 88 1014.6
20260509125008 54 219 5.0 8.0 0.00 0.00 0.00 88 1014.6
20260509124525 54 219 3.0 7.0 0.00 0.00 0.00 88 1014.6
20260509124009 54 219 3.0 7.0 0.00 0.00 0.00 88 1014.7
20260509123509 54 219 2.0 9.0 0.00 0.00 0.00 88 1014.8
20260509123011 54 219 3.0 10.0 0.00 0.00 0.00 87 1014.9
20260509122508 54 219 4.0 11.0 0.00 0.00 0.00 87 1014.9
20260509122008 54 219 7.0 11.0 0.00 0.00 0.00 87 1015.0
20260509121508 54 220 4.0 8.0 0.00 0.00 0.00 87 1014.9
20260509121008 54 220 3.0 8.0 0.00 0.00 0.00 87 1014.9
20260509120508 54 220 3.0 8.0 0.00 0.00 0.00 87 1014.9
20260509120013 54 221 4.0 8.0 0.00 0.00 0.00 88 1014.9
20260509115507 54 221 4.0 8.0 0.00 0.00 0.00 88 1014.9
20260509115009 54 221 4.0 8.0 0.00 0.00 0.00 88 1014.9
20260509114507 54 221 3.0 8.0 0.00 0.00 0.00 88 1014.9
20260509114007 54 221 1.0 6.0 0.00 0.00 0.00 88 1014.9
20260509113510 54 221 2.0 11.0 0.00 0.00 0.00 88 1014.9
20260509113007 54 221 6.0 11.0 0.00 0.00 0.00 88 1015.0
20260509112507 54 221 3.0 10.0 0.00 0.00 0.00 88 1014.9
20260509112007 54 222 4.0 11.0 0.00 0.00 0.00 88 1015.0
20260509111505 54 221 3.0 8.0 0.00 0.00 0.00 88 1014.9
20260509111006 54 223 2.0 7.0 0.00 0.00 0.00 88 1014.9
20260509110505 54 223 3.0 7.0 0.00 0.00 0.00 87 1014.7
20260509110006 54 225 3.0 10.0 0.00 0.00 0.00 86 1014.7
20260509105505 54 227 4.0 12.0 0.00 0.00 0.00 86 1014.7
20260509105007 54 206 4.0 15.0 0.00 0.00 0.00 85 1014.6
20260509104505 54 200 7.0 11.0 0.00 0.00 0.00 84 1014.7
20260509104004 54 205 5.0 10.0 0.00 0.00 0.00 84 1014.6
20260509103503 54 186 5.0 9.0 0.00 0.00 0.00 84 1014.6
20260509103003 54 185 4.0 9.0 0.00 0.00 0.00 85 1014.5
20260509102503 54 360 5.0 8.0 0.00 0.00 0.00 85 1014.5
20260509102002 54 360 3.0 8.0 0.00 0.00 0.00 85 1014.4
20260509101502 53 360 4.0 6.0 0.00 0.00 0.00 85 1014.4
20260509101001 53 185 3.0 6.0 0.00 0.00 0.00 85 1014.3
20260509100600 53 185 4.0 6.0 0.00 0.00 0.00 86 1014.3
20260509100100 53 185 3.0 6.0 0.00 0.00 0.00 86 1014.3
20260509095600 53 185 4.0 8.0 0.00 0.00 0.00 86 1014.3
20260509095101 53 360 4.0 8.0 0.00 0.00 0.00 86 1014.4
20260509094603 53 360 4.0 6.0 0.00 0.00 0.00 86 1014.3
20260509094058 53 360 2.0 5.0 0.00 0.00 0.00 86 1014.2
20260509093557 53 185 0.0 3.0 0.00 0.00 0.00 86 1014.3
20260509093058 53 185 0.0 0.0 0.00 0.00 0.00 86 1014.3
20260509092556 53 185 0.0 0.0 0.00 0.00 0.00 86 1014.2
20260509092056 53 185 0.0 0.0 0.00 0.00 0.00 86 1014.2
20260509091557 53 360 0.0 0.0 0.00 0.00 0.00 86 1014.2
20260509091056 53 185 0.0 2.0 0.00 0.00 0.00 86 1014.3
20260509090556 53 360 0.0 4.0 0.00 0.00 0.00 86 1014.3
20260509090101 53 185 1.0 5.0 0.00 0.00 0.00 87 1014.3
20260509085555 53 185 2.0 5.0 0.00 0.00 0.00 87 1014.2
20260509085055 52 360 1.0 3.0 0.00 0.00 0.00 88 1014.2
20260509084603 52 360 0.0 3.0 0.00 0.00 0.00 88 1014.2
20260509084055 53 185 0.0 6.0 0.00 0.00 0.00 88 1014.2
20260509083623 52 185 1.0 6.0 0.00 0.00 0.00 88 1014.4
20260509083053 52 360 0.0 0.0 0.00 0.00 0.00 88 1014.1
20260509082553 52 360 0.0 0.0 0.00 0.00 0.00 88 1014.0
20260509082052 52 185 0.0 0.0 0.00 0.00 0.00 88 1014.1
20260509081557 52 185 0.0 2.0 0.00 0.00 0.00 88 1014.2
20260509081052 52 185 0.0 2.0 0.00 0.00 0.00 88 1014.1
20260509080552 52 185 1.0 2.0 0.00 0.00 0.00 89 1014.2
20260509080057 52 360 0.0 4.0 0.00 0.00 0.00 89 1014.2
20260509075550 52 185 1.0 4.0 0.00 0.00 0.00 89 1014.3
20260509075053 52 185 0.0 3.0 0.00 0.00 0.00 89 1014.4
20260509074550 52 185 0.0 5.0 0.00 0.00 0.00 89 1014.4
20260509074049 52 360 1.0 5.0 0.00 0.00 0.00 89 1014.4
20260509073549 52 185 3.0 5.0 0.00 0.00 0.00 90 1014.4
20260509073049 52 185 2.0 4.0 0.00 0.00 0.00 90 1014.4
20260509072549 52 185 2.0 5.0 0.00 0.00 0.00 90 1014.3
20260509072050 52 185 3.0 6.0 0.00 0.00 0.00 90 1014.3
20260509071551 53 360 3.0 8.0 0.00 0.00 0.00 90 1014.3
20260509071049 53 185 4.0 8.0 0.00 0.00 0.00 90 1014.4
20260509070549 53 360 2.0 4.0 0.00 0.00 0.00 90 1014.3
20260509070051 53 208 2.0 4.0 0.00 0.00 0.00 90 1014.3
20260509065549 53 207 2.0 4.0 0.00 0.00 0.00 90 1014.1
20260509065047 53 208 0.0 5.0 0.00 0.00 0.00 89 1014.2
20260509064556 53 360 2.0 5.0 0.00 0.00 0.00 89 1014.1
20260509064046 53 360 1.0 5.0 0.00 0.00 0.00 89 1014.3
20260509063546 53 360 1.0 5.0 0.00 0.00 0.00 89 1014.5
20260509063044 53 360 0.0 0.0 0.00 0.00 0.00 89 1014.6
20260509062547 53 360 0.0 1.0 0.00 0.00 0.00 89 1014.7
20260509062044 53 360 0.0 2.0 0.00 0.00 0.00 90 1014.8
20260509061551 53 360 0.0 3.0 0.00 0.00 0.00 90 1014.8
20260509061042 52 360 1.0 3.0 0.00 0.00 0.00 90 1014.9
20260509060542 52 360 0.0 0.0 0.00 0.00 0.00 90 1015.0
20260509060043 52 360 0.0 0.0 0.00 0.00 0.00 89 1015.0
20260509055543 52 360 0.0 3.0 0.00 0.00 0.00 89 1015.0
20260509055041 52 360 0.0 4.0 0.00 0.00 0.00 89 1015.0
20260509054547 52 360 1.0 4.0 0.00 0.00 0.00 89 1015.1
20260509054041 52 360 2.0 4.0 0.00 0.00 0.00 89 1015.3
20260509053541 52 207 0.0 0.0 0.00 0.00 0.00 89 1015.3
20260509053040 52 360 0.0 0.0 0.00 0.00 0.00 89 1015.4
20260509052540 52 360 0.0 3.0 0.00 0.00 0.00 89 1015.2
20260509052037 52 360 0.0 4.0 0.00 0.00 0.00 89 1015.2
20260509051536 52 360 2.0 5.0 0.00 0.00 0.00 89 1014.7
20260509051038 52 360 3.0 5.0 0.00 0.00 0.00 89 1014.8
20260509050535 52 360 2.0 6.0 0.00 0.00 0.00 89 1014.8
20260509050018 52 360 2.0 4.0 0.00 0.00 0.00 88 1014.7
20260509045506 52 360 0.0 0.0 0.00 0.00 0.00 88 1014.7
20260509045105 52 360 0.0 0.0 0.00 0.00 0.00 88 1014.7
20260509044505 51 360 0.0 0.0 0.00 0.00 0.00 87 1014.8
20260509044006 52 360 0.0 0.0 0.00 0.00 0.00 87 1014.6
20260509043529 51 360 0.0 0.0 0.00 0.00 0.00 88 1014.7
20260509043003 51 360 0.0 3.0 0.00 0.00 0.00 88 1014.7
20260509042503 51 360 1.0 3.0 0.00 0.00 0.00 88 1014.7
20260509042004 51 360 0.0 0.0 0.00 0.00 0.00 87 1014.6
20260509041502 51 360 0.0 1.0 0.00 0.00 0.00 87 1014.7
20260509041100 51 360 0.0 1.0 0.00 0.00 0.00 87 1014.6
20260509040558 51 360 0.0 0.0 0.00 0.00 0.00 87 1014.6
20260509040058 51 360 0.0 0.0 0.00 0.00 0.00 86 1014.7
20260509035600 51 360 0.0 0.0 0.00 0.00 0.00 86 1014.8
20260509035058 52 360 0.0 0.0 0.00 0.00 0.00 86 1014.9
20260509034558 52 360 0.0 0.0 0.00 0.00 0.00 85 1015.0
20260509034057 52 208 0.0 0.0 0.00 0.00 0.00 85 1014.9
20260509033557 52 360 0.0 1.0 0.00 0.00 0.00 85 1014.9
20260509033057 52 360 0.0 2.0 0.00 0.00 0.00 85 1015.1
20260509032602 52 208 0.0 2.0 0.00 0.00 0.00 85 1015.0
20260509032056 52 360 0.0 0.0 0.00 0.00 0.00 85 1015.1
20260509031609 52 207 0.0 1.0 0.00 0.00 0.00 85 1015.1
20260509031101 53 360 0.0 1.0 0.00 0.00 0.00 84 1015.2
20260509030557 53 207 0.0 2.0 0.00 0.00 0.00 84 1015.1
20260509030059 53 360 1.0 2.0 0.00 0.00 0.00 84 1015.2
20260509025555 53 360 0.0 0.0 0.00 0.00 0.00 84 1015.2
20260509025055 53 360 0.0 1.0 0.00 0.00 0.00 84 1015.3
20260509024557 53 207 0.0 4.0 0.00 0.00 0.00 84 1015.3
20260509024056 53 360 1.0 4.0 0.00 0.00 0.00 84 1015.3
20260509023554 53 360 1.0 5.0 0.00 0.00 0.00 85 1015.2
20260509023108 53 360 1.0 5.0 0.00 0.00 0.00 84 1015.3
20260509022556 53 208 1.0 8.0 0.00 0.00 0.00 84 1015.3
20260509022058 53 360 3.0 8.0 0.00 0.00 0.00 84 1015.3
20260509021554 53 360 1.0 9.0 0.00 0.00 0.00 84 1015.2
20260509021058 53 360 3.0 10.0 0.00 0.00 0.00 83 1015.3
20260509020556 53 360 3.0 10.0 0.00 0.00 0.00 84 1015.2
20260509020056 53 360 5.0 10.0 0.00 0.00 0.00 83 1015.2
20260509015554 53 207 4.0 13.0 0.00 0.00 0.00 83 1015.1
20260509015054 53 360 8.0 13.0 0.00 0.00 0.00 83 1015.1
20260509014552 53 360 8.0 13.0 0.00 0.00 0.00 83 1015.1
20260509014052 53 360 4.0 10.0 0.00 0.00 0.00 83 1015.1
20260509013552 53 213 5.0 10.0 0.00 0.00 0.00 83 1015.1
20260509013053 53 360 4.0 7.0 0.00 0.00 0.00 83 1014.9
20260509012550 53 214 2.0 10.0 0.00 0.00 0.00 83 1014.9
20260509012051 53 360 3.0 10.0 0.00 0.00 0.00 83 1014.7
20260509011551 53 360 5.0 9.0 0.00 0.00 0.00 83 1014.7
20260509011050 53 360 4.0 9.0 0.00 0.00 0.00 84 1014.6
20260509010550 53 360 5.0 9.0 0.00 0.00 0.00 84 1014.4
20260509010050 53 360 4.0 8.0 0.00 0.00 0.00 84 1014.4
20260509005549 53 360 0.0 2.0 0.00 0.00 0.00 84 1014.3
20260509005053 53 360 0.0 2.0 0.00 0.00 0.00 84 1014.2
20260509004553 53 360 0.0 3.0 0.00 0.00 0.00 84 1014.3
20260509004048 53 360 0.0 5.0 0.00 0.00 0.00 84 1014.3
20260509003549 52 217 3.0 5.0 0.00 0.00 0.00 84 1014.2
20260509003053 53 360 1.0 5.0 0.00 0.00 0.00 85 1014.2
20260509002547 52 360 0.0 4.0 0.00 0.00 0.00 85 1014.1
20260509002047 52 360 0.0 5.0 0.00 0.00 0.00 85 1014.1
20260509001548 53 360 0.0 6.0 0.00 0.00 0.00 85 1014.1
20260509001048 53 360 3.0 6.0 0.00 0.00 0.00 85 1014.1
20260509000551 53 360 3.0 5.0 0.00 0.00 0.00 84 1014.0
20260509000047 53 360 3.0 8.0 0.00 0.00 0.00 84 1014.0
20260508235547 53 360 3.0 8.0 0.00 0.00 0.00 83 1014.0
20260508235049 53 217 1.0 4.0 0.00 0.00 0.00 82 1013.9
20260508234550 53 217 1.0 4.0 0.00 0.00 0.00 82 1013.6
20260508234046 54 217 1.0 4.0 0.00 0.00 0.00 82 1013.7
20260508233546 54 217 0.0 5.0 0.00 0.00 0.00 81 1013.7
20260508233053 54 217 2.0 5.0 0.00 0.00 0.00 81 1013.6
20260508232546 54 217 2.0 5.0 0.00 0.00 0.00 80 1013.4
20260508232050 54 217 2.0 7.0 0.00 0.00 0.00 80 1013.5
20260508231546 55 217 4.0 7.0 0.00 0.00 0.00 79 1013.5
20260508231046 55 217 1.0 4.0 0.00 0.00 0.00 79 1013.3
20260508230546 55 217 1.0 4.0 0.00 0.00 0.00 78 1013.1
20260508230116 55 217 1.0 6.0 0.00 0.00 0.00 78 1013.1
20260508225545 55 217 4.0 6.0 0.00 0.00 0.00 77 1013.2
20260508225048 55 217 3.0 7.0 0.00 0.00 0.00 77 1013.0
20260508224549 55 217 4.0 7.0 0.00 0.00 0.00 77 1013.1
20260508224047 56 217 1.0 3.0 0.00 0.00 0.00 77 1013.0
20260508223544 56 217 1.0 8.0 0.00 0.00 0.00 77 1013.0
20260508223044 56 217 2.0 8.0 0.00 0.00 0.00 77 1013.0
20260508222544 56 217 3.0 11.0 0.00 0.00 0.00 77 1013.1
20260508222046 56 218 3.0 11.0 0.00 0.00 0.00 76 1013.0
20260508221543 56 209 5.0 8.0 0.00 0.00 0.00 75 1012.9
20260508221043 56 206 2.0 7.0 0.00 0.00 0.00 76 1012.9
20260508220543 56 206 3.0 10.0 0.00 0.00 0.00 74 1012.9
20260508220111 56 207 3.0 13.0 0.00 0.00 0.00 73 1013.0
20260508215543 56 206 4.0 14.0 0.00 0.00 0.00 73 1013.0
20260508215043 56 214 4.0 11.0 0.00 0.00 0.00 74 1013.0
20260508214543 56 213 7.0 11.0 0.00 0.00 0.00 74 1013.1
20260508214043 56 213 2.0 11.0 0.00 0.00 0.00 74 1013.1
20260508213546 56 219 3.0 10.0 0.00 0.00 0.00 74 1013.1
20260508213042 55 215 5.0 10.0 0.00 0.00 0.00 75 1013.2
20260508212543 56 209 5.0 11.0 0.00 0.00 0.00 74 1013.2
20260508212042 56 245 3.0 15.0 0.00 0.00 0.00 75 1013.1
20260508211547 55 217 4.0 15.0 0.00 0.00 0.00 75 1013.1
20260508211046 55 198 7.0 15.0 0.00 0.00 0.00 75 1013.2
20260508210541 55 178 11.0 15.0 0.00 0.00 0.00 74 1013.3
20260508210041 55 220 6.0 13.0 0.00 0.00 0.00 76 1013.3
20260508205642 54 203 8.0 15.0 0.00 0.00 0.00 78 1013.3
20260508205040 54 198 10.0 14.0 0.00 0.00 0.00 77 1013.3
20260508204543 54 209 7.0 13.0 0.00 0.00 0.00 77 1013.3
20260508204040 54 217 7.0 20.0 0.00 0.00 0.00 76 1013.5
20260508203540 54 236 4.0 20.0 0.00 0.00 0.00 75 1013.4
20260508203045 54 202 8.0 21.0 0.00 0.00 0.00 76 1013.3
20260508202540 54 196 9.0 23.0 0.00 0.00 0.00 76 1013.1
20260508202040 55 204 17.0 25.0 0.00 0.00 0.00 74 1012.9
20260508201540 55 205 14.0 21.0 0.00 0.00 0.00 73 1012.9